SL-16 R/B (23343 NORAD) Tracking and Keplerian Element Data

This shows tracking and keplerian element data for the satellite.

Feedback or suggestion? Click here.




ElementValue
Catalog23343
NameSL-16 R/B
Epoch Orbit27520
Epoch Day198.7221147
Epoch Year2018
RAAN243.5179
Inclination98.102
Eccentricity0.0005682
Argument of Perigee237.6421
Mean Anonmoly233.0853
Mean Motion14.767363
Decay Rate-1.2E-07
L11 23343U 94074B 18198.72211470 -.00000012 00000-0 57736-5 0 9997
L22 23343 98.1020 243.5179 0005682 237.6421 233.0853 14.76736300275201

Live tracking and technical data element details for SL-16 R/B (NORAD 23343). SL-16 R/B can be tracked NOW for your location showing map with azimuth and elevation plus other details from your city location.

Track the satellite on the map from your city or location and see movement details for azimuth, elevation, latitude, longitude, range, height, and movement on the map or in text.







IsCatalogInMostPopularTable: catalog: 23343, numindb: 22
Update: records affected: 1



GetName: 23343 SL-16 R/B

Hit Count: updated at: Fri, 20 Jul 2018 20:34:32 GMT